Two Harbors, MN

5:40 AM CST on February 27, 2017 (GMT -0600)
Silver Bay Municipal

Weather History for KBFW - May, 2013

Change the Weather History Date:

Monday, May 13, 2013

  Actual Average Record
Temperature  
Mean Temperature 34 °F -  
Max Temperature 50 °F 57 °F 107 °F (1997)
Min Temperature 17 °F 34 °F 17 °F (2013)
Degree Days  
Heating Degree Days 32    
Moisture  
Dew Point 15 °F    
Average Humidity 47    
Maximum Humidity 86    
Minimum Humidity 19    
Precipitation  
Precipitation 0.00 in - - ()
Sea Level Pressure  
Sea Level Pressure 29.96 in    
Wind  
Wind Speed 3 mph (ESE)    
Max Wind Speed 14 mph    
Max Gust Speed 18 mph    
Visibility 10 miles    
Events Rain    
Averages and records for this station are not official NWS values.
T = Trace of Precipitation, MM = Missing Value Source: NWS Daily Summary

Daily Weather History Graph

Daily Weather History Graph

Search for Another Location

Airport or City:

Trip Planner

Search our weather history database for the weather conditions in past years. The results will help you decide how hot, cold, wet, or windy it might be!

Date:

Astronomy

May. 13, 2013 Rise Set
Actual Time 5:31 AM CDT 8:33 PM CDT
Civil Twilight 4:55 AM CDT 9:09 PM CDT
Nautical Twilight 4:09 AM CDT 9:55 PM CDT
Astronomical Twilight 3:13 AM CDT 10:52 PM CDT
Moon 8:16 AM CDT (5/13) 11:42 PM CDT (5/13)
Length of Visible Light 16h 13m
Length of Day
15h 01m
Waxing Crescent, 12% of the Moon is Illuminated
May 13
Waxing Crescent
May 17
First Quarter
May 24
Full
May 31
Last Quarter
Jun 8
New

Hourly Weather History & Observations

Time (CDT) Temp. Windchill Dew Point Humidity Pressure Visibility Wind Dir Wind Speed Gust Speed Precip Events Conditions
12:13 AM 21.2 °F - 14.0 °F 74% 30.11 in 10.0 mi Calm Calm - N/A   Clear
12:33 AM 21.2 °F - 12.2 °F 68% 30.10 in 10.0 mi Calm Calm - N/A   Clear
12:53 AM 21.2 °F - 12.2 °F 68% 30.10 in 10.0 mi Calm Calm - N/A   Clear
1:13 AM 21.2 °F - 14.0 °F 74% 30.10 in 10.0 mi Calm Calm - N/A   Clear
1:33 AM 21.2 °F - 14.0 °F 74% 30.09 in 10.0 mi Calm Calm - N/A   Clear
1:53 AM 21.2 °F - 12.2 °F 68% 30.09 in 10.0 mi Calm Calm - N/A   Clear
2:13 AM 19.4 °F - 12.2 °F 74% 30.09 in 10.0 mi Calm Calm - N/A   Clear
2:33 AM 19.4 °F - 12.2 °F 74% 30.08 in 10.0 mi Calm Calm - N/A   Clear
2:53 AM 19.4 °F - 14.0 °F 80% 30.08 in 10.0 mi Calm Calm - N/A   Clear
3:13 AM 19.4 °F - 12.2 °F 74% 30.08 in 10.0 mi Calm Calm - N/A   Clear
3:33 AM 19.4 °F - 12.2 °F 74% 30.08 in 10.0 mi Calm Calm - N/A   Clear
3:53 AM 17.6 °F - 12.2 °F 79% 30.08 in 10.0 mi Calm Calm - N/A   Clear
4:13 AM 17.6 °F - 12.2 °F 79% 30.08 in 10.0 mi Calm Calm - N/A   Clear
4:33 AM 17.6 °F - 12.2 °F 79% 30.08 in 10.0 mi Calm Calm - N/A   Clear
4:53 AM 17.6 °F - 12.2 °F 79% 30.07 in 10.0 mi Calm Calm - N/A   Clear
5:13 AM 17.6 °F - 12.2 °F 79% 30.08 in 10.0 mi Calm Calm - N/A   Clear
5:33 AM 17.6 °F - 12.2 °F 79% 30.08 in 10.0 mi Calm Calm - N/A   Clear
5:53 AM 17.6 °F - 12.2 °F 79% 30.08 in 10.0 mi Calm Calm - N/A   Clear
6:13 AM 19.4 °F - 15.8 °F 86% 30.08 in 10.0 mi Calm Calm - N/A   Clear
6:34 AM 24.8 °F - 17.6 °F 74% 30.08 in 10.0 mi Calm Calm - N/A   Clear
6:53 AM 28.4 °F - 19.4 °F 69% 30.08 in 10.0 mi Calm Calm - N/A   Clear
7:13 AM 33.8 °F - 21.2 °F 60% 30.08 in 10.0 mi Calm Calm - N/A   Clear
7:33 AM 37.4 °F - 23.0 °F 56% 30.09 in 10.0 mi Calm Calm - N/A   Clear
7:53 AM 39.2 °F 37.0 °F 19.4 °F 45% 30.09 in 10.0 mi SW 3.5 mph - N/A   Clear
8:13 AM 42.8 °F 39.3 °F 14.0 °F 31% 30.09 in 10.0 mi SW 5.8 mph - N/A   Clear
8:34 AM 44.6 °F 40.7 °F 10.4 °F 25% 30.09 in 10.0 mi SW 6.9 mph - N/A   Clear
8:53 AM 44.6 °F 40.2 °F 10.4 °F 25% 30.08 in 10.0 mi SSW 8.1 mph - N/A   Clear
9:13 AM 46.4 °F 43.5 °F 10.4 °F 23% 30.07 in 10.0 mi South 5.8 mph - N/A   Clear
9:33 AM 48.2 °F - 10.4 °F 22% 30.06 in 10.0 mi South 8.1 mph - N/A   Clear
9:53 AM 48.2 °F - 10.4 °F 22% 30.05 in 10.0 mi South 10.4 mph - N/A   Clear
10:13 AM 48.2 °F - 10.4 °F 22% 30.04 in 10.0 mi South 9.2 mph - N/A   Clear
10:33 AM 48.2 °F - 10.4 °F 22% 30.04 in 10.0 mi SSW 12.7 mph - N/A   Clear
10:54 AM 48.2 °F - 10.4 °F 22% 30.03 in 10.0 mi SSW 12.7 mph - N/A   Clear
11:13 AM 48.2 °F - 10.4 °F 22% 30.02 in 10.0 mi South 13.8 mph 17.3 mph N/A   Clear
11:33 AM 48.2 °F - 10.4 °F 22% 30.01 in 10.0 mi South 10.4 mph 18.4 mph N/A   Clear
11:53 AM 50.0 °F - 8.6 °F 19% 30.00 in 10.0 mi South 11.5 mph 16.1 mph N/A   Clear
12:13 PM 50.0 °F - 10.4 °F 20% 29.99 in 10.0 mi SSW 10.4 mph - N/A   Clear
12:33 PM 50.0 °F - 8.6 °F 19% 29.98 in 10.0 mi SSE 8.1 mph - N/A   Clear
12:53 PM 50.0 °F - 8.6 °F 19% 29.97 in 10.0 mi ESE 4.6 mph - N/A   Clear
1:13 PM 48.2 °F - 10.4 °F 22% 29.97 in 10.0 mi East 6.9 mph - N/A   Clear
1:33 PM 48.2 °F - 10.4 °F 22% 29.96 in 10.0 mi East 6.9 mph - N/A   Clear
1:53 PM 48.2 °F - 10.4 °F 22% 29.96 in 10.0 mi East 4.6 mph - N/A   Clear
2:13 PM 48.2 °F - 10.4 °F 22% 29.95 in 10.0 mi East 6.9 mph - N/A   Clear
2:33 PM 46.4 °F 42.9 °F 10.4 °F 23% 29.94 in 10.0 mi East 6.9 mph - N/A   Clear
3:33 PM 42.8 °F 39.3 °F 19.4 °F 39% 29.90 in 10.0 mi East 5.8 mph - N/A   Light Drizzle
3:53 PM 42.8 °F 38.6 °F 21.2 °F 42% 29.89 in 10.0 mi ENE 6.9 mph - N/A Rain Light Rain
4:13 PM 44.6 °F 41.4 °F 21.2 °F 39% 29.88 in 10.0 mi ENE 5.8 mph - N/A   Scattered Clouds
4:33 PM 46.4 °F 44.3 °F 19.4 °F 34% 29.87 in 10.0 mi East 4.6 mph - N/A   Clear
4:53 PM 50.0 °F - 15.8 °F 26% 29.85 in 10.0 mi ESE 5.8 mph - N/A   Clear
5:13 PM 50.0 °F - 15.8 °F 26% 29.84 in 10.0 mi East 6.9 mph - N/A   Clear
5:33 PM 50.0 °F - 15.8 °F 26% 29.84 in 10.0 mi East 8.1 mph - N/A   Clear
5:53 PM 50.0 °F - 17.6 °F 28% 29.83 in 10.0 mi ENE 5.8 mph - N/A   Clear
6:33 PM 46.4 °F 44.3 °F 17.6 °F 32% 29.80 in 10.0 mi ENE 4.6 mph - N/A   Clear
7:13 PM 44.6 °F 41.4 °F 17.6 °F 34% 29.79 in 10.0 mi East 5.8 mph - N/A   Clear
7:33 PM 42.8 °F 38.6 °F 19.4 °F 39% 29.79 in 10.0 mi East 6.9 mph - N/A   Clear
7:53 PM 42.8 °F 38.0 °F 17.6 °F 36% 29.78 in 10.0 mi ENE 8.1 mph - N/A   Clear
8:13 PM 41.0 °F 37.1 °F 17.6 °F 39% 29.77 in 10.0 mi ENE 5.8 mph - N/A   Clear
8:33 PM 39.2 °F 37.0 °F 19.4 °F 45% 29.76 in 10.0 mi ENE 3.5 mph - N/A   Clear
8:53 PM 39.2 °F - 19.4 °F 45% 29.76 in 10.0 mi Calm Calm - N/A   Clear
9:13 PM 39.2 °F - 19.4 °F 45% 29.75 in 10.0 mi Calm Calm - N/A   Mostly Cloudy
9:33 PM 37.4 °F - 19.4 °F 48% 29.74 in 10.0 mi Calm Calm - N/A   Scattered Clouds
9:53 PM 37.4 °F - 21.2 °F 52% 29.74 in 10.0 mi Calm Calm - N/A   Clear
10:13 PM 37.4 °F - 21.2 °F 52% 29.73 in 10.0 mi Calm Calm - N/A   Clear
10:33 PM 35.6 °F - 21.2 °F 56% 29.72 in 10.0 mi Calm Calm - N/A   Clear
10:53 PM 37.4 °F - 21.2 °F 52% 29.71 in 10.0 mi Calm Calm - N/A   Scattered Clouds
11:13 PM 37.4 °F - 21.2 °F 52% 29.70 in 10.0 mi Calm Calm - N/A   Clear
11:33 PM 37.4 °F 34.9 °F 21.2 °F 52% 29.70 in 10.0 mi NNE 3.5 mph - N/A   Clear
11:53 PM 37.4 °F - 21.2 °F 52% 29.69 in 10.0 mi Calm Calm - N/A   Clear